Location: Boiro
(42.6475°N, 8.8834°W)
Time: 21:35:44
(UTC+02:00)

AO-73 - Pass Details

Date: 25 April 2024
Orbit: 560 x 625 km, 97.7° (Epoch: 20 May)

Event Time Altitude Azimuth Distance (km) Brightness Sun altitude
Rises 06:11:51 0° 7° (N) 2,920 ? -15.0°
Reaches altitude 10° 06:14:05 10° 2° (N) 2,012 ? -14.6°
Maximum altitude 06:18:20 50° 287° (WNW) 804 ? -14.0°
Enters shadow 06:21:08 20° 219° (SW) 1,461 ? -13.6°
